COSMOS 1275 DEB

Satellite information

Favourite Embed

Satellite Type and Status

DEBRISIN ORBIT

Key statistics

Satellite COSMOS 1275 DEB at a glance.

Uptime

16263

Days in orbit

Revolutions

≈ 14.0

Per day

Orbit

LEO

Low Earth Orbit

Inclination

83.0

Latest

Satellite identification and parameters

Extended collection of information and parameters for COSMOS 1275 DEB.

Object identification

Identified? True

Debris? True

Object name: COSMOS 1275 DEB

International designator: 1981-053EH

Object number (NORAD): 12962

Object ID (CCSDS): 12962

Country: COMMONWEALTH OF INDEPENDENT STATES (CIS)

Current information (Y/N): Y

RCS size: SMALL

Orbital parameters

Period: 102.666 minutes

Inclination: 82.962 deg

SMA: 7262.928 km

Apoapsis: 904.688 km

Periapsis: 864.899 km

RAAN: 156.7804 deg

Eccentricy: 0.0027392

Argument of periapsis: 303.5471 deg

Mean anomaly: 56.3085 deg

Mean motion: 14.02604219 rev/day

Mean motion (dot): 0.00002461 rev/day2

B* drag term: 0.0015823 1/REarth

Two-line elements (TLE)

Creation date: Dec. 12, 2025, 7:16 a.m.

Reference frame: TEME

Reference center: EARTH

Epoch: Dec. 11, 2025, 10:02 p.m. UTC

TLE line 0: 0 COSMOS 1275 DEB

TLE line 1: 1 12962U 81053EH 25345.91824168 .00002461 00000-0 15823-2 0 9999

TLE line 2: 2 12962 82.9620 156.7804 0027392 303.5471 56.3085 14.02604219234258

Live tracking on map

Real-time ground track for satellite COSMOS 1275 DEB.

In-orbit conjunctions

A list of the most updated potential collisions computed for object COSMOS 1275 DEB.

Target Orbit TCA Probability of collision Miss distance Type
TIMATION 1 LEO 2025-11-14 20:51:11 0.0002955871 499.0 (m) PAYLOAD
FENGYUN 1C DEB SSO 2025-11-08 19:57:37 0.0001411878 23.0 (m) DEBRIS
PSLV R/B SSO 2025-10-13 05:14:22 0.0001294409 363.0 (m) ROCKET BODY
COSMOS 1844 LEO 2025-10-07 15:56:46 0.0003560935 209.0 (m) PAYLOAD
CZ-4 DEB SSO 2025-05-07 08:00:45 0.0001062836 152.0 (m) DEBRIS

Associated space launch

Navigation satellite providing location information for the Tsiklon-B navigation system

COSMOS 1275 DEB was lifted into orbit during the mission ‘Kosmos-3M | Parus 27’, on board a Kosmos-3M space rocket.

The launch took place on June 4, 1981, 3:41 p.m. from 132/2.

For more information about the launch, click the button.

Launch to space Kosmos-3M | Parus 27
Kosmos-3M | Parus 27

Agency: N/A

Status: Launch Successful

Launch date: June 4, 1981, 3:41 p.m. UTC

Rocket: Kosmos-3M

Launch pad: 132/2

Location: Plesetsk Cosmodrome, Russian Federation

...

Latest news about this satellite

There are no fresh news available about this satellite. Check back as we update our databases every day.


Newsletter sign-up

Weekly statistics, charts and insights to help you stay on top of the space industry.